Tracking 34141 objects as of 18-May-2026
HD Live streaming from Space Station
objects crossing your sky now

CZ-6A DEB

Track CZ-6A DEB now!
10-day predictions


NORAD ID: 54461
Int'l Code: 2022-151GM
Perigee: 809.9 km
Apogee: 998.3 km
Inclination: 99.0 °
Period: 102.9 minutes
Semi major axis: 7275 km
RCS: Unknown
Launch date: November 11, 2022
Source: People's Republic of China (PRC)
Launch site: Taiyaun Space Center, China (TSC)

Note: This is SATELLITE DEBRIS
Your satellite tracking list
Your tracking list is empty




NASA's NSSDC Master Catalog

Two Line Element Set (TLE):
1 54461U 22151GM  26138.45936698  .00000952  00000-0  63923-3 0  9993
2 54461  99.0113 134.0280 0129469 123.2895 238.0748 13.99089030178835
Source of the keplerian elements: AFSPC